Tracking 19575 objects as of 18-Feb-2019
HD Live streaming from Space Station
objects crossing your sky now

RADUGA 1-4

Track RADUGA 1-4 now!
RADUGA 1-4 is classified as:


NORAD ID: 25642
Int'l Code: 1999-010A
Perigee: 35,782.1 km
Apogee: 35,830.0 km
Inclination: 14.6 °
Period: 1,436.7 minutes
Semi major axis: 42177 km
RCS: 12.5893 m2 (large)
Launch date: February 28, 1999
Source: Commonwealth of Independent States (former USSR) (CIS)
Launch site: TYURATAM MISSILE AND SPACE COMPLEX (TTMTR)

Military communication.
aabbcc
Your satellite tracking list
Your tracking list is empty




NASA's NSSDC Master Catalog

Two Line Element Set (TLE):
1 25642U 99010A   19048.87356747 -.00000356 +00000-0 +00000-0 0  9992
2 25642 014.6012 024.9039 0005682 267.2352 276.7461 01.00227964073116
Source of the keplerian elements: AFSPC